Погода в Рамзае

Россия / Пензенская область     53°18′04″N   44°43′52″E
темп.,
°C
ветер,
м/с
пор.,
м/с
влажн.,
%
обл.,
%
осадки,
мм/ч
давл.,
гПа
погр.,
м
21 апреля, ср
ср2100:00+5юв132485100 3.1 1013954
03:00+5юв122189100 8.0 1013997
06:00+5юв112076100 0.1 1012797
09:00+5юв111985100 0.1 1013790
12:00+7ююв101782100 0.0 1013973
15:00+8ююв91589100 0.1 1013741
18:00+6ююв91694100 1.6 1014719
21:00+5ююз5119175 1.7 1018396
22 апреля, чт
чт2200:00+6ю4109082 0.0 1018288
03:00+6ю3892100 0.0 1019234
06:00+5ююв499622 0.1 1020242
09:00+10ююз59735 0.1 1021714
12:00+13юз7958100 0.7 10211803
15:00+12зюз57617 1.2 10211103
18:00+12зсз246549 0.1 1022132
21:00+10всв117057 0.1 102310
23 апреля, пт
пт2300:00+8вюв22765 0.0 102310
03:00+7ююв11825 0.0 102310
06:00+7юв228249 0.0 102334
09:00+12ююв34616 0.0 1023428
12:00+15ю2343100 0.1 10222084
15:00+14ююв2349100 0.1 10211310
18:00+13ююв115841 0.0 101914
21:00+10вюв22645 0.0 101812
24 апреля, сб
сб2400:00+8ююв34875 0.0 101775
03:00+7юв33925 0.0 101653
06:00+7юв36896 0.0 1014154
09:00+11ю5676100 0.3 1013564
12:00+14ю5756100 0.1 10101428
15:00+14ююз5852100 0.6 10081340
18:00+9зюз71185100 0.9 10091072
21:00+5з61082100 1.1 1010830
25 апреля, вс
вс2500:00+6зюз588099 0.1 1010720
03:00+5зюз4875100 0.4 1011309
06:00+4зюз49813 0.0 1012347
09:00+8зюз69555 0.0 10131515
12:00+9зюз81049100 0.6 10132284
15:00+8зюз71052100 1.3 10141853
18:00+7з611595 0.2 10141346
21:00+5юз496463 0.2 1016247